DMSP 5D-2 F11 DEB, 28321

Orbit data source: Space-Track

DMSP 5D-2 F11 DEB, 28321 is space debris in SSO originally from a launch on Thu, 28 Nov 1991 UTC launched from the Air Force Western Test Range (AFWTR). Debris objects in space refer to the collection of defunct objects orbiting the Earth. Examples of debris include non-operational satellites, rocket bodies, and fragments generated from explosions, collisions, or faulty payload assembly.

Loading next visibility...
Identifier
28321, 1991-082AJ
Orbit
SSO
Country
Flag of USUS
Related business
Manufacturer
Unknown
Mission
Spacecraft
Bus & Motor
Unknown
Mass
Unknown
Launch date (UTC)
1991-11-28 (34 years ago)
Launch vehicle
Unknown
Launch site
Air Force Western Test Range (AFWTR)
Object type
Payload
Rocket body
Debris
Shape & HBR
Unknown shape, 0.1 m
Radar Cross Section
Small (<0.1 m²)

Expand to show TLE details & history
Last TLE update: 18 hours ago

TLE from 18 hours ago
0 DMSP 5D-2 F11 DEB
1 28321U 91082AJ  26120.82949174  .00136006  00000-0  61946-2 0  9995
2 28321  98.5188 248.2157 0004349 235.0295 275.6997 15.20055160150839
Epoch: 2026-04-30T19:54Z
TLE epoch observation values (Epoch: 2026-04-30T19:54:28.086Z)
Latitude
29.01597°
Longitude
-84.43234°
Altitude
509.079 km
Speed
7.612 km/s
True Right ascension
04h 51m 49s
True Declination
28° 51' 54"
Sunlit
Object was in daylight at epoch
Visualization orbit readout
Latitude
Unknown
Longitude
Unknown
Altitude
Unknown
Speed
Unknown
Apparent Right ascension
Unknown
Apparent Declination
Unknown
Sunlit
N/A
Visualization observer readout
Local Sidereal Time
21:56:23
Azimuth
Unknown
Elevation
Unknown
Doppler factor
Unknown
Orbital elements
Apogee altitude
505.683 km
Perigee altitude
499.698 km
Semi-major axis
6,880.828 km
Eccentricity
0.00043
Inclination
98.5188°
RAAN
248.2157°
Arg. of periapsis
235.0295°
True anomaly
275.65011°
Mean anomaly
275.6997°
Eccentric anomaly
275.6749°
Mean motion
3.80261 °/min
Orbital period
94.67 mins
BSTAR
0.0061946
Loading maneuver chart data...
Computing Atmospheric mass density...
Loading historical data...
Loading historical data...
Loading historical data...
Loading historical data...
Loading historical data...
Loading historical data...
Loading historical data...

Documentation

Showing up to 5 results
|